Regional Weather Roundup
Issued by NWS

Home | Current Version | Previous Version | Graphics & Text | Print | Product List | Glossary On
Versions: 1 2 3 4 5 6 7 8 9 10 11 12 13 14 15 16 17 18 19 20 21 22 23 24 25 26 27 28 29 30 31 32 33 34 35 36 37 38 39 40 41 42 43 44 45 46 47 48 49 50
523
ASUS45 KCYS 120710
RWRWY

WYOMING REGIONAL WEATHER ROUNDUP
NATIONAL WEATHER SERVICE CHEYENNE WY
1200 AM MST FRI FEB 12 2016

NOTE:  "FAIR" INDICATES FEW OR NO CLOUDS BELOW 12,000 FEET
WITH NO SIGNIFICANT WEATHER AND/OR OBSTRUCTIONS TO VISIBILITY.

WYZ001-120800-
YELLOWSTONE NATIONAL PARK

CITY           SKY/WX    TMP DP  RH WIND       PRES   REMARKS
LK YELLOWSTONE   N/A     31  24  75 CALM      30.37S
W YELLOWSTONE  NOT AVBL

$$
WYZ002>013-054>058-071-098>099-120800-
NORTHERN WYOMING

CITY           SKY/WX    TMP DP  RH WIND       PRES   REMARKS
JACKSON        CLOUDY    32  32 100 CALM      30.36S
CODY           MOCLDY    39  18  41 SE6       30.24S WCI  35
GREYBULL       CLOUDY    40  27  59 SE5       30.23R
WORLAND        CLOUDY    34  29  82 CALM      30.23S
SHERIDAN       FAIR      38  26  62 W12       30.25S WCI  30
BUFFALO        FAIR      39  24  55 NW12      30.25S WCI  32
GILLETTE       FAIR      34  26  72 W10       30.24R WCI  26
HULETT         CLOUDY    34  30  86 W5        30.25R WCI  30
NEWCASTLE      FAIR      32  27  80 N9        30.24S WCI  24

$$
WYZ014>020-022>026-101>103-120800-
CENTRAL WYOMING

CITY           SKY/WX    TMP DP  RH WIND       PRES   REMARKS
BIG PINEY      FAIR      25  21  85 CALM      30.36F
PINEDALE         N/A     23  21  93 NW7       30.37S WCI  15
DUBOIS           N/A    N/A N/A N/A NW16      30.28S
LANDER         FAIR      40  24  53 SE3       30.22F
RIVERTON       MOCLDY    36  24  62 CALM      30.24F
CASPER         CLOUDY    33  25  72 W6        30.25S WCI  28
DOUGLAS        FAIR      27  24  89 W3        30.26S

$$
WYZ021-027>030-104>119-120800-
SOUTHERN WYOMING

CITY           SKY/WX    TMP DP  RH WIND       PRES   REMARKS
EVANSTON       FAIR      35  15  44 SW6       30.38R WCI  30
FORT BRIDGER   MOSUNNY   36  21  55 W6        30.40R WCI  31
ROCK SPRINGS   FAIR      35  19  52 SW15      30.35F WCI  25
DIXON          FAIR      22  15  77 SE6       30.42S WCI  14
RAWLINS        MOCLDY    35  21  56 W18       30.31F WCI  24
SARATOGA       FAIR      28  21  74 E7        30.36S WCI  21
LARAMIE        FAIR      36  23  59 NW7       30.29R WCI  30
CHEYENNE       FAIR      34  24  67 CALM      30.27R
TORRINGTON     FAIR      32  26  78 W7        30.24S WCI  26
PINE BLUFFS    FAIR      32  27  80 NW9       30.26S WCI  24

$$




USA.gov is the U.S. government's official web portal to all federal, state and local government web resources and services.